Find Starlink 3567

NORAD ID: 51871 Int'l Des: 2022-022 Owner: SPXS Country: US Constellation: starlink operational
LEOCIRCULAR

Live Position

Loading 3D Globe...

About Starlink 3567

Description loading...

Upcoming Passes

Passes for default location (London). Set your location on the main map for personalized predictions.

Altitude History

Loading altitude history...

Two-Line Element Set

1 51871U 22022V 26127.23687625 -.00000768 00000-0 -30205-4 0 9994
2 51871 53.2172 106.2942 0001178 84.3971 275.7156 15.08833699232065
Epoch: May 7, 2026 • Age: 10 hours

Current Status

Altitude 544.5 km
Velocity 7.59 km/s
Sub-Earth Point -16.35°S, 170.19°W
Launch Date Mar 3, 2022
Age 4.1 years
Type internet

Technical Details

Classification Payload
Mass 297.00 kg
Dry Mass 275.00 kg
Total Mass 297.00 kg
Length 0.20 m
Diameter 2.80 m
Span 9.00 m
Shape Box + pan
Manufacturer SPXS
Bus Type Starlink
Phase Status In Orbit
Owner/State SPXS/US

Most Searched